Location: Heppenheim
(49.6414°N, 8.6321°E)
Time: 04:36:05
(UTC+00:00)

Daily predictions for brighter satellites

Satellite Brightness Start Highest point End
(mag) Time Altitude Azimuth Time Altitude Azimuth Time Altitude Azimuth
Cosmos 1331 Rocket 4.4 00:06:53 53° WNW 00:07:01 54° WNW 00:12:12 10° NNE
ATLAS 2AS CENTAUR R/B 3.0 00:09:45 41° WSW 00:12:06 63° NW 00:18:53 10° NE
IDEFIX/ARIANE 42P 4.1 00:11:42 10° NE 00:15:56 25° E 00:16:41 24° ESE
Meteor 1-5 Rocket 4.0 00:15:39 10° NNW 00:20:58 76° W 00:20:58 76° W
Cosmos 1953 Rocket 4.1 00:18:19 10° N 00:22:18 57° NE 00:22:18 57° NE
Cosmos 1980 Rocket 2.6 00:19:27 10° NW 00:24:20 51° W 00:24:20 51° W
USA 234 4.0 00:20:34 10° E 00:26:51 51° N 00:33:08 10° WNW
Cosmos 44 Rocket 4.1 00:29:47 43° ESE 00:29:47 43° ESE 00:34:13 10° NE
COSMOS 2406 4.0 00:32:29 37° ESE 00:33:05 38° ESE 00:38:21 10° NE
Cosmos 1825 Rocket 4.3 00:29:11 10° NNW 00:32:19 44° NW 00:32:19 44° NW
Meteor 2-10 4.1 00:30:32 10° NNW 00:35:59 67° W 00:36:02 67° W
Cosmos 2369 3.5 00:30:38 10° NNW 00:36:21 79° WSW 00:36:38 76° SSW
Cosmos 1634 Rocket 4.1 00:35:56 52° SE 00:37:14 64° E 00:43:20 10° NNE
Cosmos 724 4.3 00:44:49 61° SSE 00:45:32 66° ESE 00:51:27 10° NE
Cosmos 2084 3.9 00:46:23 56° N 00:46:23 56° N 00:49:58 10° NE
Cosmos 1627 Rocket 4.4 00:41:10 10° NNW 00:47:25 73° W 00:48:29 60° SSW
Spot 1 4.2 00:43:29 10° NNE 00:47:07 67° NE 00:47:07 67° NE
Cosmos 1607 4.1 00:47:22 52° SSE 00:48:14 57° ESE 00:54:21 10° NE
Cosmos-2242 3.2 00:52:12 66° NE 00:52:12 66° NE 00:55:59 10° NNE
Cosmos 2360 Rocket 3.5 00:46:40 10° NNW 00:51:59 39° NE 00:57:15 10° ESE
Cosmos 2333 Rocket 2.7 00:47:34 10° NNW 00:53:11 59° NE 00:57:05 20° SE
USA 281 3.3 00:51:27 27° SE 00:55:18 78° ENE 01:01:54 10° NNW
Cosmos 2082 Rocket 2.2 00:59:24 61° WSW 01:00:22 75° WNW 01:06:08 10° NNE
Cosmos 1833 Rocket 4.5 01:00:04 17° WNW 01:02:47 23° NW 01:07:13 10° N
Meteor 2-2 Rocket 4.2 01:02:52 58° S 01:04:00 80° E 01:09:39 10° NNE
Cosmos 2279 Rocket 4.0 01:03:59 46° SSE 01:05:54 73° E 01:12:09 10° NNE
Cosmos 2278 4.0 01:01:17 10° NNW 01:07:00 67° ENE 01:11:11 19° SE
Cosmos 2322 Rocket 3.0 01:01:55 10° NNW 01:07:26 51° NE 01:12:54 10° SE
Cosmos 1486 Rocket 4.0 01:02:34 10° NNW 01:07:48 76° ENE 01:09:36 42° SE
Cosmos 2221 3.7 01:07:40 31° ESE 01:08:21 33° E 01:12:03 10° NNE
NPP 4.2 01:03:07 10° NNE 01:08:25 52° E 01:09:56 40° SSE
Resurs 1-4 Rocket 4.1 01:04:57 10° NE 01:08:57 21° E 01:12:17 12° SE
NOSS 3-3 (A) 3.8 01:14:12 50° SSE 01:15:10 58° SE 01:21:11 10° NE
ACS3 Solar Sail 1.9 01:11:00 10° N 01:16:57 63° WNW 01:18:33 47° SW
Cosmos 1777 Rocket 4.0 01:13:09 10° NNW 01:18:27 81° ENE 01:20:41 36° SSE
Cosmos 2219 Rocket 3.5 01:16:01 10° NNW 01:21:19 40° NE 01:26:36 10° ESE
SL-16 R/B 2.1 01:16:51 10° NNW 01:22:34 81° WSW 01:24:53 37° SSE
CZ-4C R/B 2.0 01:22:06 50° W 01:22:59 60° NW 01:28:33 10° NE
H-2A R/B 4.2 01:19:54 10° NE 01:23:36 19° E 01:27:20 10° SE
GP-B 3.7 01:19:34 10° NNW 01:23:25 41° WNW 01:23:25 41° WNW
Cosmos 1271 Rocket 3.5 01:27:38 38° E 01:27:45 38° E 01:31:00 10° NNE
Meteor 1-14 Rocket 4.2 01:24:00 10° N 01:29:47 81° ENE 01:32:37 31° SSE
ATLAS 3B R/B 3.9 01:23:54 10° WNW 01:29:23 26° WSW 01:29:23 26° WSW
SL-4 R/B 2.8 01:31:35 37° ESE 01:31:35 37° ESE 01:33:59 10° ESE
USA 267 3.8 01:25:25 10° ENE 01:31:39 44° SE 01:34:01 32° S
NOSS 3-3 (C) 3.8 01:30:27 46° S 01:31:54 63° SE 01:38:03 10° NE
Cosmos 2058 Rocket 3.3 01:32:04 51° W 01:32:15 51° WNW 01:36:35 10° N
Cosmos 2266 Rocket 4.0 01:29:13 10° N 01:35:23 79° E 01:39:09 25° SSE
Cosmos 1470 2.7 01:33:25 10° N 01:36:16 61° N 01:36:16 61° N
Gbstr 26 Del rocket 2.7 01:37:23 64° ESE 01:37:23 64° ESE 01:40:35 10° ESE
KORONAS-FOTON 4.1 01:38:28 47° NNW 01:38:28 47° NNW 01:41:10 10° N
USA 290 4.2 01:37:48 20° ESE 01:38:04 20° ESE 01:40:28 10° NE
Cosmos 909 Rocket 4.4 01:37:59 32° WSW 01:40:45 56° NW 01:47:07 10° NE
Cosmos 1536 4.0 01:44:37 10° NNW 01:46:48 26° WNW 01:46:48 26° WNW
Cosmos 2333 4.4 01:42:20 10° NNW 01:48:01 75° ENE 01:53:44 10° SE
DMSP B5D2-2 4.2 01:45:23 16° SSE 01:49:29 73° ENE 01:54:40 10° N
Cosmos 1812 Rocket 3.6 01:49:34 42° SSE 01:50:55 71° E 01:55:15 10° NNE
Meteor 2-6 Rocket 4.3 01:49:06 39° SSW 01:51:14 69° WNW 01:57:09 10° N
NOSS 3-4 (A) 4.1 01:46:10 10° NW 01:52:43 70° NE 02:00:29 10° SE
NOSS 3-4 (C) 4.1 01:46:42 10° NW 01:53:16 70° NE 02:01:02 10° SE
IDEFIX/ARIANE 42P 2.8 01:50:39 10° N 01:55:40 53° WNW 01:57:22 37° WSW
ISS -1.0 01:56:15 10° SE 01:56:15 10° SE 01:56:25 10° SE
COSMOS 2441 4.3 01:52:58 10° NNE 01:57:47 84° ESE 01:59:44 37° S
Envisat 3.5 01:53:22 10° NNE 01:58:21 57° E 02:01:23 23° S
Aureole 1 Rocket 3.8 01:55:25 10° NNW 01:59:26 56° ENE 02:04:27 10° SE
Cosmos 1707 4.4 02:03:05 15° NW 02:03:05 15° NW 02:04:09 10° NNW
Cosmos 2084 Rocket 3.3 01:58:51 10° NW 02:03:05 88° SW 02:07:19 10° SE
ATLAS 2AS CENTAUR R/B 4.3 01:58:26 10° WNW 02:04:17 29° NNW 02:10:05 10° NE
Iridium 4 Rocket 3.4 02:03:00 28° S 02:05:32 80° E 02:10:39 10° N
MOZ.5/SAFIR/RUBIN 5/SL-8 3.7 02:05:32 34° SSW 02:07:24 61° WSW 02:12:01 10° NNW
Meteor 1-27 Rocket 4.3 02:03:31 16° S 02:08:09 58° E 02:13:58 10° NNE
H-2A R/B 2.3 02:06:25 22° SSE 02:08:37 71° ENE 02:12:11 10° N
USA 234 3.3 02:03:01 10° ESE 02:09:35 87° NNE 02:16:10 10° WNW
Cosmos 1975 2.9 02:06:59 10° NNW 02:10:29 45° W 02:10:35 45° W
Cosmos 44 Rocket 4.3 02:08:21 25° W 02:10:48 41° NW 02:15:44 10° NNE
Cosmos 990 Rocket 3.8 02:06:00 10° NNW 02:11:06 71° WSW 02:15:53 12° SSE
ADEOS II 3.0 02:06:51 10° NNE 02:11:52 45° E 02:16:28 12° S
Cosmos 1763 Rocket 3.5 02:13:16 31° SSW 02:15:52 84° WNW 02:21:13 10° NNE
Cosmos 1238 Rocket 3.1 02:15:05 28° SE 02:16:08 42° E 02:18:59 10° NNE
ALOS 2.6 02:11:57 10° NNE 02:16:28 61° E 02:19:31 20° S
MSX 4.5 02:11:44 10° N 02:17:06 41° WNW 02:19:47 26° WSW
COSMOS 2406 3.9 02:14:30 26° WSW 02:17:19 44° NW 02:22:49 10° NNE
COSMOS 2428 4.2 02:14:57 10° NNW 02:20:20 40° NE 02:25:40 10° ESE
CZ-2D R/B 2.3 02:15:16 10° NNE 02:20:31 70° ESE 02:24:32 18° S
SL-16 R/B 3.8 02:15:30 10° SE 02:21:20 43° ENE 02:27:12 10° N
ADEOS Rocket 3.7 02:16:01 10° N 02:23:27 65° WNW 02:28:49 22° SW
Spot 2 4.3 02:23:34 10° SSE 02:28:22 83° WSW 02:33:22 10° NNW
Cosmos 1898 Rocket 4.0 02:24:05 10° NNW 02:29:13 61° ENE 02:34:19 10° SE
Cosmos 1354 Rocket 4.2 02:28:31 10° NNW 02:33:34 47° WSW 02:38:17 11° S
Cosmos 1937 Rocket 4.4 02:28:39 10° NNW 02:33:44 50° ENE 02:38:44 10° SE
FENGYUN 3A 4.5 02:30:26 10° N 02:35:22 37° WNW 02:38:13 22° WSW
Cosmos 2360 Rocket 2.5 02:30:41 10° NW 02:36:03 44° WSW 02:41:22 10° S
Cosmos 2333 Rocket 3.1 02:32:25 10° NW 02:37:06 27° WSW 02:39:00 22° SW
Alouette 2 Rocket 3.1 02:33:48 10° NNW 02:37:58 79° WSW 02:41:30 10° S
USA 305 3.4 02:38:24 15° NNW 02:38:48 16° NNW 02:39:52 10° NNE
EP 1 4.1 02:37:25 10° NW 02:40:01 84° SW 02:42:48 10° SE
USA 281 4.2 02:38:17 21° SW 02:40:26 25° W 02:45:40 10° NW
Meteor 2-10 Rocket 3.9 02:38:26 10° N 02:43:31 65° ENE 02:48:45 10° SSE
Cosmos 540 Rocket 3.7 02:41:18 23° SW 02:44:26 56° WNW 02:49:32 10° NNE
H-2A R/B 3.8 02:41:51 10° NE 02:45:17 27° E 02:48:42 10° SSE
Cosmos 2221 3.7 02:43:58 21° WSW 02:45:24 26° WNW 02:48:54 10° NNW
Cosmos 2082 Rocket 4.0 02:41:19 10° W 02:45:26 20° NW 02:49:34 10° N
Cosmos 1553 Rocket 4.5 02:41:34 10° S 02:47:39 63° E 02:53:51 10° NNE
USA 276 3.3 02:50:08 13° SE 02:50:08 13° SE 02:50:24 10° SE
Resurs 1-4 Rocket 2.2 02:43:54 10° N 02:49:11 65° WNW 02:53:20 16° SSW
Cosmos 468 Rocket 4.0 02:46:38 18° SSW 02:50:41 83° WNW 02:56:01 10° NNE
Cosmos 2322 Rocket 2.9 02:46:19 10° NW 02:51:14 32° WSW 02:56:08 10° SSW
BREEZE-M DEB (TANK) 3.1 02:50:12 16° W 02:52:29 76° SSW 03:00:46 10° ESE
DNEPR-1 R/B 4.4 02:49:14 10° NW 02:54:29 56° SW 03:00:53 10° SSE
Cosmos 1766 Rocket 3.7 02:52:52 10° NNW 02:57:06 51° W 03:01:16 10° S
ACS3 Solar Sail 3.7 02:55:18 10° NNW 02:58:14 14° NW 03:01:13 10° W
Cosmos 1833 4.3 02:53:58 17° SW 02:58:22 69° WNW 03:04:03 10° NNE
Cosmos 1271 Rocket 4.3 03:01:02 15° W 03:02:10 17° WNW 03:04:29 10° NNW
H-2A R/B 2.1 02:58:15 10° N 03:03:21 68° WNW 03:08:28 10° SSW
CRYOSAT 2 4.3 02:59:12 10° S 03:04:04 69° W 03:08:57 10° N
Cosmos 2219 Rocket 2.5 03:00:01 10° NW 03:05:17 42° WSW 03:10:33 10° S
Cosmos 2237 Rocket 3.8 03:00:01 10° NNW 03:05:21 38° NE 03:10:38 10° ESE
SL-16 R/B 3.8 03:02:51 10° WNW 03:05:43 14° W 03:06:38 14° WSW
SL-4 R/B 3.0 03:05:08 15° W 03:07:08 22° SW 03:10:08 10° SSE
Meteor 2-11 Rocket 4.5 03:01:47 10° NNW 03:07:54 67° W 03:13:58 10° S
SL-14 R/B 4.0 03:05:17 10° S 03:09:04 54° E 03:12:53 10° NNE
CZ-3 Stage 3 4.5 03:05:05 13° SW 03:11:43 30° SSE 03:31:52 10° ESE
USA 290 3.4 03:10:18 17° WSW 03:12:04 27° WNW 03:14:51 10° N
CZ-4C R/B 4.0 03:08:18 10° WNW 03:12:26 24° NNW 03:17:29 10° NE
ARGOS 3.4 03:08:57 10° NNE 03:14:22 74° ESE 03:19:43 10° S
USA 267 3.4 03:08:23 10° ENE 03:14:58 77° NNW 03:21:22 11° WSW
Cosmos 1408 Rocket 4.1 03:11:00 10° N 03:15:17 61° ENE 03:19:29 10° SSE
Cosmos 1745 Rocket 4.4 03:09:49 10° N 03:15:59 67° ENE 03:22:04 10° SSE
METEOR-M 4.1 03:11:38 10° NNE 03:16:58 75° WNW 03:22:16 10° SSW
Gbstr 26 Del rocket 3.9 03:19:45 10° W 03:22:38 21° SW 03:25:32 10° S
Cosmos 2322 3.7 03:20:04 10° NNW 03:25:46 73° WSW 03:31:26 10° SSE
NOSS 3 (A) 4.0 03:29:08 10° NW 03:31:26 85° SW 03:34:25 10° SE
ISS -3.1 03:29:12 11° SW 03:32:20 47° SSE 03:35:37 10° ENE
Envisat 4.3 03:32:54 10° N 03:36:57 25° WNW 03:40:59 10° WSW
BREEZE-M DEB (TANK) 2.6 03:31:44 10° WSW 03:37:47 52° SSE 03:40:28 10° E
Meteor 2-4 Rocket 4.2 03:35:03 10° SW 03:40:02 38° WNW 03:45:02 10° N
Cosmos 1461 2.7 03:37:14 10° SW 03:40:56 63° NW 03:44:39 10° NE
H-2A R/B 4.2 03:42:25 10° W 03:43:00 10° W 03:43:34 10° W
NOSS 3-4 (A) 4.4 03:37:15 10° NW 03:43:26 36° WSW 03:50:30 10° S
Meteor 1-28 Rocket 3.2 03:40:32 10° SSE 03:43:46 68° ENE 03:47:01 10° N
NOSS 3-4 (C) 4.4 03:37:47 10° NW 03:44:00 36° WSW 03:51:06 10° S
AQUA 3.9 03:39:56 10° N 03:44:33 62° WNW 03:49:10 10° SSW
Cosmos 1066 Rocket 4.5 03:40:15 10° SW 03:45:25 48° WNW 03:50:36 10° N
NOSS 0 Rocket 3.9 03:39:55 10° NNW 03:46:07 75° WSW 03:52:15 10° SSE
CZ-3 R/B 4.2 03:51:24 10° WSW 04:08:32 25° SSW 04:15:50 10° SSE
